809  
FPUS82 KCHS 150027  
OPUCHS  
 
TEST   
..KCHS/KSAV GATEWAY OBSERVATIONS
 
TEST  
NATIONAL WEATHER SERVICE CHARLESTON SC  
700 PM EST THU DEC 14 2017  
 
NOTE: "FAIR" INDICATES FEW OR NO CLOUDS BELOW 12,000 FEET WITH NO  
SIGNIFICANT WEATHER AND/OR OBSTRUCTIONS TO VISIBILITY.  
 
SCZ050-WAZ558-NCZ071-TXZ119-213-PAZ071-DCZ001-FLZ074-172-MI076-  
NYZ176-178-MAZ016-IL014-TNZ027-NJZ106-GAZ044-MD014-150100-  
   
..GATEWAY OBSERVATIONS FOR CHARLESTON INTERNATIONAL
 
 
 
CITY SKY/WX TMP DP RH WIND PRES REMARKS  
CHAS AIRPORT CLOUDY 49 42 77 S6 29.97R  
6HR MIN TEMP: 49; 6HR MAX TEMP: 62;  
 
SEATTLE MOCLDY 46 36 68 W6 30.26S  
6HR MIN TEMP: 41; 6HR MAX TEMP: 50;  
 
CHARLOTTE PTCLDY 52 28 39 SE6 29.92R  
6HR MIN TEMP: 47; 6HR MAX TEMP: 59;  
 
DALLAS DFW PTCLDY 54 28 36 N14 30.08R  
6HR MIN TEMP: 54; 6HR MAX TEMP: 62;  
 
DALLAS LOVE PTCLDY 55 28 35 N13 30.09R  
6HR MIN TEMP: 55; 6HR MAX TEMP: 62;  
 
PHILLADELPHIA PTCLDY 31 9 39 NW8 30.05R WCI 23  
6HR MIN TEMP: 31; 6HR MAX TEMP: 35;  
 
WASH NATIONAL CLOUDY 35 16 45 N10 30.06R WCI 27  
6HR MIN TEMP: 35; 6HR MAX TEMP: 41;  
 
BALTIMORE CLOUDY 32 15 49 NW3 30.05R  
6HR MIN TEMP: 31; 6HR MAX TEMP: 39;  
 
MIAMI PTCLDY 65 50 58 S5 30.09R  
6HR MIN TEMP: 65; 6HR MAX TEMP: 73;  
 
DETROIT PTCLDY 20 3 48 SW8 30.08R WCI 10  
6HR MIN TEMP: 19; 6HR MAX TEMP: 24; 6HR PCP: TRACE;  
 
NEWARK PTCLDY 26 7 44 NW10G20 30.02R WCI 16  
6HR MIN TEMP: 26; 6HR MAX TEMP: 34;  
 
LAGUARDIA PTCLDY 28 12 51 NW14 30.00R WCI 17  
6HR MIN TEMP: 28; 6HR MAX TEMP: 33;  
 
J F K MOCLDY 27 9 46 NW17 30.02R WCI 14  
6HR MIN TEMP: 27; 6HR MAX TEMP: 32;  
 
BOSTON LOGAN CLEAR 24 3 40 W20G28 29.88R WCI 10  
6HR MIN TEMP: 24; 6HR MAX TEMP: 30;  
 
FT. LAUDERDALE PTCLDY 66 49 54 S7 30.08R  
6HR MIN TEMP: 66; 6HR MAX TEMP: 71;  
 
CHICAGO O'HARE PTCLDY 22 10 60 W5 30.07R WCI 16  
6HR MIN TEMP: 22; 6HR MAX TEMP: 27;  
 
CHICAGO MIDWAY PTCLDY 23 9 55 NW7 30.08R WCI 15  
6HR MIN TEMP: 23; 6HR MAX TEMP: 30;  
 
HOUSTON BUSH CLOUDY 57 45 64 NW3 30.00R  
6HR MIN TEMP: 56; 6HR MAX TEMP: 65;  
 
HOUSTON HOBBY CLOUDY 61 40 45 NW6 29.98R  
6HR MIN TEMP: 61; 6HR MAX TEMP: 65;  
 
NASHVILLE PTCLDY 34 21 59 NW6 30.08R WCI 29  
6HR MIN TEMP: 34; 6HR MAX TEMP: 40;  
 
ATLANTA CLOUDY 49 37 63 SW8 29.96R  
6HR MIN TEMP: 49; 6HR MAX TEMP: 58;  
 

 
 
GAZ044-118-TXZ119-213-NCZ071-DCZ001-MDZ014-506-PAZ021-071-NJZ106-  
NYZ176-178-MAZ106-OHZ011-021-055-MIZ076-KYZ091-ILZ014-INZ047-  
MNZ060-ONZ431-150100-  
   
..GATEWAY OBSERVATIONS FOR SAVANNAH INTERNATIONAL
 
 
 
CITY SKY/WX TMP DP RH WIND PRES REMARKS  
SAVANNAH ARPT CLOUDY 52 38 58 SW6 29.99R  
6HR MIN TEMP: 52; 6HR MAX TEMP: 66;  
 
ATLANTA CLOUDY 49 37 63 SW8 29.96R  
6HR MIN TEMP: 49; 6HR MAX TEMP: 58;  
 
CHARLOTTE PTCLDY 52 28 39 SE6 29.92R  
6HR MIN TEMP: 47; 6HR MAX TEMP: 59;  
 
DALLAS DFW PTCLDY 54 28 36 N14 30.08R  
6HR MIN TEMP: 54; 6HR MAX TEMP: 62;  
 
HOUSTON BUSH CLOUDY 57 45 64 NW3 30.00R  
6HR MIN TEMP: 56; 6HR MAX TEMP: 65;  
 
WASH NATIONAL CLOUDY 35 16 45 N10 30.06R WCI 27  
6HR MIN TEMP: 35; 6HR MAX TEMP: 41;  
 
WASH DULLES CLOUDY 33 17 51 N13 30.04R WCI 24  
6HR MIN TEMP: 33; 6HR MAX TEMP: 39;  
 
BALTIMORE CLOUDY 32 15 49 NW3 30.05R  
6HR MIN TEMP: 31; 6HR MAX TEMP: 39;  
 
PHILADELPHIA PTCLDY 31 9 39 NW8 30.05R WCI 23  
6HR MIN TEMP: 31; 6HR MAX TEMP: 35;  
 
NEWARK PTCLDY 26 7 44 NW10G20 30.02R WCI 16  
6HR MIN TEMP: 26; 6HR MAX TEMP: 34;  
 
LAGUARDIA PTCLDY 28 12 51 NW14 30.00R WCI 17  
6HR MIN TEMP: 28; 6HR MAX TEMP: 33;  
 
J F K MOCLDY 27 9 46 NW17 30.02R WCI 14  
6HR MIN TEMP: 27; 6HR MAX TEMP: 32;  
 
BOSTON CLEAR 24 3 40 W20G28 29.88R WCI 10  
6HR MIN TEMP: 24; 6HR MAX TEMP: 30;  
 
PITTSBURG MOCLDY 23 11 60 W3 30.03R  
6HR MIN TEMP: 22; 6HR MAX TEMP: 28;  
 
AKRON CLOUDY 17 11 77 NW5 30.04R WCI 10  
6HR MIN TEMP: 16; 6HR MAX TEMP: 26; 6HR PCP: 0.01;  
 
CLEVELAND PTCLDY 16 11 80 W8 30.10R WCI 5  
6HR MIN TEMP: 16; 6HR MAX TEMP: 27;  
 
CINCINNATI CLOUDY 25 17 72 N6 30.07R WCI 18  
6HR MIN TEMP: 24; 6HR MAX TEMP: 29;  
 
COLUMBUS PTCLDY 23 16 73 W3 30.08S  
DETROIT PTCLDY 20 3 48 SW8 30.08R WCI 10  
6HR MIN TEMP: 19; 6HR MAX TEMP: 24; 6HR PCP: TRACE;  
 
CHICAGO O'HARE PTCLDY 22 10 60 W5 30.07R WCI 16  
6HR MIN TEMP: 22; 6HR MAX TEMP: 27;  
 
MINNEAPOLIS FLURRIES 22 17 81 NW12 30.03S WCI 10  
6HR MIN TEMP: 21; 6HR MAX TEMP: 23; 6HR PCP: TRACE;  
 
INDIANAPOLIS MOCLDY 27 10 49 S6 30.07S WCI 20  
6HR MIN TEMP: 27; 6HR MAX TEMP: 30;  
 
TORONTO CANADA PTCLDY 14 5 67 W9 29.98R WCI 2  
 

 
 
 
CLICK HERE TO GO TO PREVIOUS BULLETINS.

The Nexlab SC Page
The Nexlab GA Page Main Text Page